TimeMDT,TemperatureF,Dew PointF,Humidity,Sea Level PressureIn,VisibilityMPH,Wind Direction,Wind SpeedMPH,Gust SpeedMPH,PrecipitationIn,Events,Conditions,WindDirDegrees,DateUTC
12:53 AM,75.0,46.0,36,29.88,10.0,NNW,11.5,-,N/A,,Partly Cloudy,340,2013-08-31 06:53:00
1:53 AM,71.1,46.9,42,29.90,10.0,NNW,16.1,-,0.00,,Scattered Clouds,340,2013-08-31 07:53:00
2:53 AM,69.1,48.0,47,29.94,10.0,North,9.2,-,N/A,,Partly Cloudy,360,2013-08-31 08:53:00
3:53 AM,69.1,42.1,38,29.95,10.0,NNE,4.6,-,N/A,,Clear,30,2013-08-31 09:53:00
4:53 AM,64.0,44.1,48,29.99,10.0,NW,8.1,-,N/A,,Clear,310,2013-08-31 10:53:00
5:53 AM,66.0,42.1,42,30.01,10.0,NNW,6.9,-,N/A,,Scattered Clouds,330,2013-08-31 11:53:00
6:53 AM,64.0,42.1,45,30.04,10.0,WNW,6.9,-,N/A,,Scattered Clouds,300,2013-08-31 12:53:00
7:53 AM,68.0,41.0,37,30.06,10.0,NW,6.9,-,N/A,,Scattered Clouds,320,2013-08-31 13:53:00
8:53 AM,69.8,44.6,40,30.07,10.0,Calm,Calm,-,,,Partly Cloudy,0,2013-08-31 14:53:00
9:53 AM,72.0,41.0,33,30.07,10.0,ENE,6.9,-,N/A,,Partly Cloudy,60,2013-08-31 15:53:00
10:53 AM,73.9,41.0,30,30.06,10.0,NE,6.9,-,N/A,,Clear,40,2013-08-31 16:53:00
11:53 AM,75.9,42.1,30,30.05,10.0,NE,10.4,-,N/A,,Clear,40,2013-08-31 17:53:00
12:53 PM,77.0,42.1,29,30.03,10.0,NNE,5.8,-,N/A,,Partly Cloudy,30,2013-08-31 18:53:00
1:53 PM,78.1,42.1,28,30.13,10.0,East,6.9,-,N/A,,Partly Cloudy,80,2013-08-31 19:53:00
2:53 PM,79.0,42.1,27,30.02,10.0,Variable,5.8,-,N/A,,Partly Cloudy,0,2013-08-31 20:53:00
3:43 PM,81.0,41.0,24,30.00,10.0,East,9.2,-,N/A,,Partly Cloudy,90,2013-08-31 21:43:00
4:53 PM,82.0,39.9,22,29.99,10.0,NE,3.5,-,N/A,,Partly Cloudy,40,2013-08-31 22:53:00
5:53 PM,82.0,39.0,22,29.98,10.0,ESE,8.1,-,N/A,,Partly Cloudy,110,2013-08-31 23:53:00
6:53 PM,81.0,37.9,21,29.98,10.0,ENE,6.9,-,N/A,,Clear,60,2013-09-01 00:53:00
7:53 PM,75.9,41.0,29,29.99,10.0,ENE,12.7,-,N/A,,Clear,60,2013-09-01 01:53:00
8:53 PM,72.0,42.1,34,30.03,10.0,NE,12.7,-,N/A,,Clear,50,2013-09-01 02:53:00
9:53 PM,68.0,41.0,37,30.05,10.0,NE,10.4,-,N/A,,Clear,50,2013-09-01 03:53:00
10:53 PM,66.0,39.0,37,30.06,10.0,NNE,8.1,-,N/A,,Clear,20,2013-09-01 04:53:00
11:53 PM,64.0,37.9,38,30.06,10.0,NNE,6.9,-,N/A,,Clear,20,2013-09-01 05:53:00